Temp
68 62 60 66 68 70 69 68 69 74 79 76 75 75 77 80 80 83 83 84 88 91 96 98 98 98 97 95 91 93 91 89 90 89 89 89 90 91 93 93 92 91 88 86
65 59 68 73 72 69 67 64 65 74 77 75 73 73 78 81 81 83 83 83 86 90 93 96 97 95 95 92 90 90 91 89 88 90 90 92 93 94 94 88 86 86 88 86
62 68 73 69 66 65 65 63 64 65 73 76 70 67 72 80 83 85 86 85 86 88 90 92 94 95 95 91 88 86 86 85 86 89 90 88 90 88 89 86 88 85 85 83
66 73 69 67 64 66 59 70 68 65 65 59 70 55 68 74 77 80 82 84 85 87 89 92 93 93 92 92 91 85 85 87 88 88 87 83 82 81 82 82 80 79 83 83
60 64 64 63 65 69 62 70 67 66 63 63 64 60 66 76 73 77 81 84 85 88 89 90 93 94 95 93 91 87 84 86 88 85 87 83 82 86 86 81 77 77 80 84
65 72 68 66 67 70 70 66 65 66 63 51 59 61 63 70 74 79 84 85 86 88 90 92 93 95 95 97 94 90 85 83 86 85 85 81 81 86 84 80 79 82 82 83
59 61 69 69 58 66 65 57 44 44 48 48 64 60 64 76 81 83 83 85 88 89 90 91 92 93 93 95 94 91 86 84 85 84 83 82 82 82 81 81 82 82 84 85
48 45 59 66 59 56 61 57 49 38 45 53 64 56 65 78 82 82 86 87 88 90 92 92 93 94 95 94 92 91 86 84 80 81 82 84 81 83 83 83 78 82 80 78
42 47 61 60 65 63 57 54 65 56 58 52 61 66 74 79 79 81 81 84 84 86 88 91 94 95 94 92 90 89 85 76 78 79 77 77 79 79 76 79 80 79 79 79
47 37 57 51 53 55 58 62 50 55 39 39 57 60 63 69 72 77 79 81 81 82 88 91 93 92 92 91 88 85 79 75 75 75 74 74 75 77 75 75 74 74 75 76
42 40 50 57 48 50 58 49 51 57 57 48 48 59 71 70 75 75 78 77 74 80 81 84 90 89 87 82 78 73 73 71 71 72 72 72 72 72 75 75 75 76 77 78
43 41 36 44 53 62 64 58 52 45 44 57 53 46 71 74 75 76 70 68 66 69 71 73 72 71 70 70 71 70 70 70 73 76 76 75 76 75 74 74 75 76 75 76
41 38 34 37 53 54 53 59 60 59 58 50 51 50 67 70 71 70 65 64 63 64 65 64 66 67 69 72 73 73 73 75 77 78 77 75 74 73 73 73 74 75 75 75
49 37 39 37 41 45 46 55 57 58 47 47 52 57 61 63 63 60 61 59 62 62 63 64 65 68 71 74 76 78 79 79 79 78 76 73 72 72 72 73 73 73 74 73
42 34 43 44 47 47 43 49 57 52 57 49 57 56 59 62 58 57 59 59 62 62 62 64 67 73 75 76 77 78 79 78 77 75 74 72 72 73 72 71 71 71 71 71
46 35 37 35 45 47 45 48 57 58 60 59 62 57 51 61 60 56 56 59 61 61 64 69 70 73 75 75 75 75 75 75 76 74 73 73 72 72 71 71 70 69 69 69
41 36 35 32 40 43 37 50 58 60 62 62 57 63 54 57 55 54 57 59 59 61 63 65 68 70 71 72 73 72 73 74 73 73 73 73 73 72 71 71 70 67 66 65
40 37 35 35 43 34 56 68 68 62 63 69 69 62 65 62 58 59 61 59 61 62 65 65 66 67 69 70 70 71 71 71 71 71 72 73 73 71 70 69 66 64 64 62
47 38 34 37 38 46 57 53 59 58 60 71 69 64 62 60 59 55 57 58 54 57 56 58 60 61 64 64 67 66 66 68 68 67 66 66 67 66 66 64 62 62 61 61
43 41 36 36 35 34 43 54 58 63 48 71 64 52 55 61 47 48 53 53 49 52 54 54 58 57 54 58 63 64 64 64 63 64 64 66 66 64 62 61 60 60 61 62
37 36 34 35 35 42 47 53 61 44 49 70 57 57 62 62 61 54 55 52 50 49 48 51 52 51 53 54 56 57 59 59 63 65 66 65 64 61 62 60 60 58 56 55
38 36 37 40 35 34 46 55 49 51 60 65 57 64 64 58 57 54 53 50 49 48 49 51 50 51 53 58 60 56 54 59 63 64 63 62 61 62 62 57 55 55 53 53
37 39 37 35 35 42 46 46 54 56 60 58 56 61 57 52 49 48 46 48 49 50 50 53 53 56 59 61 61 59 60 62 62 61 60 59 60 60 57 53 52 55 53 54
43 44 38 38 37 41 44 46 47 51 50 54 52 53 55 47 46 45 44 46 48 50 55 60 60 59 58 57 58 60 59 60 60 58 58 59 57 53 52 54 53 52 50 51
41 41 36 35 35 41 44 44 44 45 45 45 48 49 47 45 44 45 44 46 48 54 61 62 61 60 59 60 57 58 59 58 57 57 56 55 54 52 50 48 45 47 45 43
44 42 39 35 41 40 43 46 48 44 44 45 44 43 45 48 46 47 45 46 49 59 63 62 62 61 60 60 58 57 56 55 55 55 53 52 54 53 51 46 46 38 39 38
MSLP
1003.80 1003.17 1000.76 1000.14 1000.25 999.31 998.59 997.36 995.81 995.33 995.60 995.59 995.10 995.60 996.27 996.87 997.05 996.56 996.58 996.79 996.48 996.41 996.67 997.08 997.88 998.75 999.53 1000.54 1001.57 1001.84 1002.62 1003.39 1004.13 1004.96 1005.45 1005.73 1005.85 1006.31 1006.66 1006.87 1007.10 1007.47 1008.26 1009.00
1002.51 1000.62 1000.11 999.92 999.42 998.99 998.63 997.94 996.58 995.32 995.29 995.59 995.49 995.13 995.56 995.51 995.50 995.97 996.12 996.33 996.27 996.04 996.05 996.18 996.90 998.10 998.95 1000.08 1001.16 1001.75 1002.36 1003.10 1003.75 1004.20 1004.59 1004.91 1005.19 1005.55 1005.97 1006.58 1007.08 1007.52 1008.17 1008.97
1000.27 998.86 998.89 999.21 999.00 998.43 998.01 997.50 997.03 996.29 995.84 995.53 996.09 995.47 995.05 994.52 994.52 994.69 994.79 995.40 995.95 995.73 995.65 995.95 996.48 997.14 998.37 999.50 1000.66 1001.62 1002.26 1002.85 1003.47 1003.59 1004.21 1004.91 1005.23 1005.85 1005.92 1006.82 1007.19 1007.97 1008.53 1009.07
999.37 998.47 998.35 998.33 998.06 998.41 997.17 997.53 997.36 997.03 996.24 994.96 995.91 994.41 993.92 993.88 993.59 993.71 994.05 994.41 994.73 995.13 995.39 995.59 996.08 996.69 997.67 998.90 1000.19 1000.98 1001.71 1002.26 1003.17 1003.71 1003.95 1004.65 1005.36 1005.81 1006.54 1007.11 1007.83 1008.23 1008.48 1008.67
999.22 998.63 997.81 997.40 997.10 997.46 997.31 997.67 997.39 997.26 996.70 995.97 994.98 994.07 992.65 992.10 991.71 992.05 992.62 993.24 993.74 994.23 994.54 994.83 995.24 995.92 997.01 998.23 999.46 1000.39 1001.23 1001.83 1002.39 1003.37 1003.63 1004.63 1005.21 1005.57 1005.98 1006.84 1007.56 1007.97 1008.37 1008.50
998.85 998.55 998.01 997.69 997.76 996.91 997.57 997.78 997.41 996.93 996.47 995.44 994.98 993.89 991.70 990.95 990.50 990.32 990.88 991.80 992.53 993.21 993.48 993.99 994.63 995.31 996.00 997.03 998.31 999.57 1000.62 1001.42 1002.05 1002.99 1003.55 1004.45 1005.13 1004.90 1005.86 1006.79 1007.35 1007.67 1007.96 1008.32
999.16 998.16 997.59 997.61 998.35 997.52 997.32 997.96 997.53 996.45 995.25 994.19 993.81 993.00 991.13 989.99 989.25 989.33 989.89 990.78 991.38 992.09 992.65 993.07 993.74 994.44 995.36 995.99 997.22 998.66 1000.17 1000.94 1001.83 1002.73 1003.37 1004.37 1005.01 1005.49 1005.93 1006.46 1006.91 1007.37 1007.46 1007.48
998.88 998.04 998.49 998.09 997.97 997.58 996.52 996.95 996.33 995.18 993.99 992.84 992.27 990.65 989.59 990.15 989.92 990.03 989.77 990.39 990.88 991.15 991.67 992.17 992.84 993.56 994.25 995.49 997.01 998.25 999.80 1000.77 1002.23 1002.91 1003.59 1004.25 1005.12 1005.61 1005.98 1006.34 1006.74 1007.21 1007.08 1007.93
1000.41 998.52 997.97 998.24 997.36 997.67 996.57 995.75 995.62 994.56 993.26 992.52 989.93 989.99 989.39 989.20 989.51 990.03 990.88 990.75 991.18 991.89 992.06 991.92 992.06 992.65 993.90 995.55 997.07 998.15 999.69 1001.89 1002.75 1003.42 1004.20 1004.82 1005.41 1005.75 1006.61 1007.11 1007.49 1007.94 1008.35 1008.92
1001.98 1000.87 998.36 999.16 999.47 998.18 996.79 997.05 996.27 995.14 994.30 992.74 989.31 988.91 988.07 989.08 989.85 990.59 990.93 991.34 992.03 992.60 992.17 991.79 992.19 993.23 994.67 996.32 997.69 999.17 1000.98 1002.41 1003.29 1004.07 1004.83 1005.46 1006.01 1006.69 1007.40 1007.96 1008.55 1009.04 1009.45 1009.64
1003.35 1002.71 999.15 997.71 998.84 997.68 996.23 997.07 996.71 995.22 993.63 991.71 990.27 988.96 988.20 988.85 989.26 990.59 991.44 992.55 994.00 994.16 994.06 993.49 993.35 994.43 996.20 998.07 999.73 1000.93 1002.05 1003.09 1003.97 1004.72 1005.37 1005.96 1006.89 1007.61 1008.27 1008.82 1009.23 1009.41 1009.49 1009.43
1004.59 1003.63 1001.56 999.40 997.65 996.31 995.39 994.93 996.50 995.78 994.49 992.65 991.97 992.41 991.39 990.49 991.22 991.60 993.73 995.47 996.10 996.77 997.13 997.08 997.45 998.27 999.29 1000.19 1000.99 1001.85 1002.76 1003.64 1004.37 1004.95 1005.72 1006.55 1007.30 1008.17 1008.81 1009.43 1009.76 1010.03 1010.34 1010.27
1005.41 1003.94 1002.12 999.85 997.97 997.90 996.17 995.32 994.92 995.03 993.71 993.34 992.06 993.01 993.10 992.89 993.24 994.23 995.74 997.08 997.91 998.31 998.49 998.73 999.49 1000.03 1000.41 1000.73 1001.17 1002.03 1003.04 1003.60 1004.38 1005.32 1006.29 1007.18 1008.12 1008.78 1009.39 1009.73 1010.27 1010.31 1010.77 1010.89
1005.12 1004.77 1003.19 1001.09 999.13 999.04 997.61 995.70 995.48 994.13 993.75 994.17 993.27 992.77 994.23 994.35 995.04 996.48 997.27 998.19 998.75 998.96 999.27 999.64 1000.14 1000.48 1000.63 1000.95 1001.42 1001.98 1002.75 1003.84 1004.74 1005.78 1006.82 1007.86 1008.62 1009.30 1009.79 1010.21 1010.73 1011.19 1011.31 1011.29
1005.61 1004.75 1003.22 1001.54 999.83 999.08 998.13 996.30 994.57 994.38 993.75 993.71 993.25 993.67 995.14 995.43 996.64 997.67 998.62 999.27 999.41 999.79 999.90 1000.05 1000.23 1000.58 1000.97 1001.33 1001.92 1002.69 1003.53 1004.65 1005.53 1006.57 1007.52 1008.32 1009.11 1009.77 1010.16 1010.77 1011.41 1011.68 1011.79 1011.83
1005.07 1004.61 1003.50 1000.41 998.61 997.76 996.61 995.51 993.67 993.73 993.19 993.31 992.65 994.36 996.61 997.19 998.45 998.90 999.56 1000.02 1000.09 1000.71 1000.92 1000.53 1001.13 1001.47 1001.84 1002.32 1003.12 1003.84 1004.75 1005.81 1006.51 1007.11 1008.05 1008.83 1009.51 1010.27 1010.76 1011.17 1011.65 1011.89 1012.20 1012.42
1004.84 1004.55 1003.50 1000.48 997.77 997.35 996.36 993.53 992.52 992.65 992.83 992.44 992.34 993.92 996.86 998.00 998.61 999.73 1000.14 1000.89 1001.39 1001.78 1002.09 1002.22 1002.73 1003.01 1003.56 1004.09 1004.65 1005.17 1005.81 1006.65 1007.23 1008.01 1008.77 1009.40 1010.09 1010.64 1011.10 1011.56 1011.86 1012.36 1012.67 1012.97
1003.93 1004.18 1003.45 999.77 996.01 995.53 992.62 991.77 991.52 991.85 991.91 991.55 991.98 994.24 995.35 998.29 999.13 1000.24 1000.95 1001.58 1002.41 1003.09 1003.43 1004.16 1004.57 1004.87 1005.32 1005.55 1006.22 1006.47 1007.15 1007.45 1008.16 1008.96 1009.63 1010.19 1010.55 1011.08 1011.61 1012.03 1012.43 1012.89 1013.14 1013.34
1003.21 1004.13 1003.19 999.90 997.62 995.93 993.40 994.13 992.59 992.14 991.59 991.59 992.30 994.56 996.25 998.76 1000.11 1001.47 1002.80 1003.57 1004.58 1005.41 1006.09 1006.60 1006.96 1007.19 1007.32 1007.20 1007.77 1008.29 1008.32 1008.99 1009.78 1010.54 1010.95 1011.35 1011.76 1012.02 1012.37 1012.67 1013.19 1013.39 1013.65 1013.81
1003.28 1003.69 1003.34 1001.43 999.48 997.64 997.13 996.27 995.35 993.75 992.75 992.31 993.53 995.81 998.09 999.20 1000.71 1002.88 1004.29 1005.45 1006.44 1007.61 1007.92 1008.08 1008.33 1008.71 1008.57 1009.29 1009.22 1009.10 1009.51 1010.18 1010.79 1011.67 1012.07 1012.10 1012.29 1012.66 1013.00 1013.54 1013.72 1013.89 1013.89 1013.67
1003.07 1003.27 1003.11 1002.25 1001.17 999.72 999.35 998.09 996.41 995.65 994.75 993.43 995.07 996.67 997.84 998.41 1000.51 1003.27 1004.93 1006.07 1007.32 1008.88 1008.87 1009.14 1009.27 1009.62 1010.04 1010.51 1010.61 1010.59 1010.93 1011.50 1012.10 1012.16 1012.27 1012.43 1012.99 1013.39 1013.63 1013.95 1013.91 1014.26 1014.67 1014.98
1002.79 1003.03 1003.00 1002.73 1002.59 1002.03 1001.19 998.83 997.91 997.03 995.90 995.26 996.17 997.58 998.87 1000.30 1002.45 1004.22 1005.56 1006.71 1007.65 1008.90 1009.91 1010.04 1008.87 1009.99 1011.27 1011.25 1011.43 1011.85 1012.13 1012.37 1012.52 1012.42 1012.93 1013.13 1013.53 1013.65 1013.71 1014.48 1014.88 1015.13 1015.46 1015.34
1003.40 1003.64 1003.75 1004.74 1004.74 1003.95 1002.91 1001.71 1000.11 999.22 998.11 998.20 998.27 999.36 1001.28 1002.56 1004.07 1005.42 1006.57 1007.93 1008.57 1009.09 1009.52 1009.43 1009.95 1011.03 1011.66 1011.76 1011.91 1012.14 1012.75 1012.79 1012.90 1013.17 1013.35 1013.53 1013.91 1014.16 1014.85 1015.24 1015.51 1015.42 1015.84 1015.78
1003.63 1004.00 1004.62 1005.24 1005.79 1004.83 1003.88 1003.15 1002.40 1001.79 1001.45 1000.95 1001.16 1002.19 1002.91 1004.36 1005.74 1006.84 1007.82 1009.05 1009.57 1009.92 1009.80 1010.29 1010.85 1011.50 1012.07 1012.47 1012.68 1013.24 1013.38 1013.39 1013.33 1013.59 1013.77 1014.15 1014.49 1015.27 1015.69 1015.77 1016.05 1016.41 1016.80 1016.55
1004.58 1004.82 1005.48 1006.34 1006.43 1005.59 1004.98 1004.46 1004.10 1003.98 1004.06 1003.99 1004.76 1005.26 1006.00 1006.10 1007.37 1007.73 1008.89 1009.64 1010.04 1009.76 1010.15 1010.43 1010.96 1011.45 1012.06 1012.63 1013.21 1013.66 1013.67 1013.63 1013.66 1014.07 1014.49 1014.79 1015.23 1015.71 1016.21 1016.88 1017.47 1017.66 1018.41 1018.32
1004.57 1004.41 1005.20 1006.59 1006.54 1006.21 1005.61 1005.52 1005.23 1005.24 1005.91 1006.39 1006.58 1007.11 1007.77 1007.71 1008.17 1008.94 1009.73 1010.51 1010.68 1010.14 1010.37 1010.81 1011.30 1011.78 1012.28 1012.79 1013.40 1013.82 1014.19 1014.35 1014.38 1014.47 1015.11 1015.58 1015.50 1015.75 1016.49 1017.16 1017.88 1018.68 1019.13 1019.15
Wind_Speed
17 17 24 26 26 27 25 28 27 23 24 22 28 25 21 22 17 18 17 20 21 24 23 23 21 19 18 15 16 13 16 15 12 12 13 12 12 11 11 10 9 8 8 8
19 23 24 24 24 26 27 28 29 19 13 21 22 22 23 25 26 23 20 19 21 20 22 21 23 19 17 17 14 12 14 14 13 12 10 11 10 11 11 6 4 5 9 8
24 23 21 23 24 26 26 27 26 27 21 16 13 22 24 25 21 23 23 23 22 20 21 20 19 19 19 15 14 15 14 13 14 14 10 6 5 2 5 4 7 7 9 10
21 21 24 23 21 24 26 26 25 25 23 18 27 19 23 24 24 24 23 24 24 24 23 22 23 20 18 19 17 16 16 15 15 12 12 12 10 8 7 7 5 6 12 11
21 21 24 26 26 23 25 21 21 23 24 22 24 18 18 21 26 28 27 25 23 23 25 25 24 23 19 18 16 14 15 15 15 14 12 11 10 9 10 5 8 6 9 9
28 26 26 17 26 24 17 22 21 21 19 21 25 22 20 21 23 20 20 27 25 24 24 24 23 19 18 20 19 16 15 16 14 15 12 12 11 5 8 7 8 8 9 9
24 28 30 16 18 25 22 15 12 14 17 19 26 26 21 15 19 21 22 21 20 23 22 23 23 22 20 19 17 16 17 17 16 16 13 14 12 9 8 10 8 9 8 8
21 25 20 14 26 19 28 24 12 15 17 19 26 23 26 28 7 7 7 16 20 20 22 23 23 23 22 19 17 19 19 17 14 15 13 12 12 8 7 6 4 1 4 7
9 22 15 20 18 32 22 20 28 26 4 10 17 22 19 13 13 15 12 11 7 10 13 20 21 21 17 17 16 18 19 14 15 13 10 10 10 8 10 10 8 7 7 5
5 12 11 5 9 30 17 22 21 16 10 13 15 24 16 20 15 13 20 19 7 4 16 18 16 17 17 18 16 17 17 13 14 13 12 11 14 14 13 10 11 9 8 8
3 9 10 7 17 22 16 10 14 14 18 12 13 9 8 16 16 20 14 14 9 9 9 10 14 17 18 18 17 16 15 16 15 16 14 14 14 13 14 12 11 10 9 9
4 5 5 14 26 21 26 23 24 12 11 16 15 6 14 11 9 13 15 10 9 7 9 11 15 16 14 16 15 17 17 18 17 16 17 18 17 16 14 13 12 11 10 9
4 1 5 10 10 7 10 17 22 27 15 17 15 8 5 7 8 4 13 10 9 12 12 13 13 15 16 18 19 19 19 19 19 20 19 18 17 15 14 13 11 10 9 8
2 4 9 12 16 9 11 18 23 24 13 14 13 7 16 10 12 9 10 6 12 14 17 18 16 17 18 18 21 21 21 21 21 20 19 17 16 14 13 12 11 9 8 8
3 7 14 20 25 21 22 25 24 22 20 17 18 14 11 6 13 13 12 7 15 11 15 14 16 19 21 21 21 21 21 20 19 19 18 17 15 13 12 11 10 8 8 8
2 6 15 23 21 19 20 19 24 24 20 19 21 6 7 2 13 13 14 11 17 16 16 18 19 21 21 21 20 20 19 18 17 18 17 15 14 12 10 9 8 8 8 8
9 4 4 10 9 10 10 25 26 25 21 25 18 9 20 17 18 15 16 16 17 16 16 18 19 19 18 19 18 19 18 17 17 16 14 13 11 10 8 7 7 8 7 8
12 10 4 8 9 7 6 18 17 21 20 21 14 19 19 16 18 17 15 16 17 19 20 19 16 18 17 18 17 17 15 16 15 14 12 10 9 8 7 6 8 7 7 8
14 5 6 6 5 2 11 13 2 10 16 16 11 11 19 20 20 17 17 18 16 15 15 14 14 15 16 16 16 14 15 15 14 12 11 9 8 7 7 8 7 7 7 6
10 11 6 5 4 2 5 12 12 10 12 19 15 12 20 22 12 10 19 21 15 14 13 15 16 14 14 11 10 14 13 13 12 9 7 7 8 8 7 7 6 6 5 5
4 4 6 6 3 0 11 18 10 8 1 7 23 23 26 18 13 21 19 21 20 9 13 11 13 12 12 9 9 12 11 10 7 7 7 8 7 6 6 5 6 7 7 5
3 4 4 4 4 2 17 10 6 7 10 8 24 22 18 22 25 20 18 18 20 18 13 11 14 12 7 8 9 9 8 5 4 6 6 7 6 5 7 7 6 5 4 2
1 3 2 4 3 8 10 7 9 8 11 16 14 23 25 23 23 22 17 15 15 15 12 12 14 13 10 7 9 8 6 5 5 5 6 6 5 7 7 5 4 3 4 4
2 2 4 2 7 12 12 13 17 18 22 19 19 16 21 21 19 19 19 13 12 10 10 14 14 13 11 9 8 6 5 5 4 4 5 3 8 6 5 4 5 5 4 3
2 4 3 4 3 8 13 13 15 20 20 24 21 18 18 21 17 19 17 12 6 8 13 12 12 10 10 8 7 5 4 5 4 3 4 4 5 4 6 8 7 6 8 8
8 4 3 4 11 8 9 15 19 21 19 19 20 20 16 16 18 16 13 10 5 8 10 10 9 9 6 6 6 5 6 4 3 4 5 4 2 4 4 6 8 12 8 6
Wind_Direction
198 219 227 225 220 248 251 268 254 236 228 251 226 238 236 227 228 230 218 229 227 226 220 209 204 207 190 191 193 189 187 182 177 193 196 208 204 207 212 220 213 200 168 190
237 228 244 245 240 236 241 255 262 259 257 243 239 245 235 232 217 217 211 218 223 225 222 220 198 195 190 174 187 204 193 186 192 193 202 203 211 209 211 188 164 143 184 196
247 246 230 231 252 244 242 242 246 258 249 227 261 258 247 239 241 230 225 217 227 232 222 213 224 195 187 184 185 194 199 192 192 204 191 181 219 270 203 193 183 175 188 195
266 262 249 261 237 243 243 239 243 255 248 237 205 248 238 231 233 228 226 227 219 224 224 222 209 217 193 195 191 194 196 190 188 197 183 178 191 196 210 213 205 195 207 220
256 252 247 246 238 233 245 243 244 237 252 258 250 252 252 238 225 217 221 220 222 218 222 217 220 207 204 191 187 188 185 189 186 182 185 174 204 189 185 169 176 178 196 210
271 269 268 250 282 245 232 238 241 239 229 234 238 242 242 238 228 230 216 212 214 216 220 215 213 216 202 197 192 175 176 180 178 174 166 179 197 167 154 174 169 191 195 199
262 257 250 245 228 259 209 209 228 225 220 234 227 228 238 262 226 224 214 209 211 209 216 215 210 207 209 206 190 162 175 172 169 170 166 173 181 151 180 180 182 188 191 185
262 260 234 242 250 240 210 210 214 208 220 226 222 226 226 232 204 311 266 207 216 210 209 210 210 209 199 190 186 171 168 159 143 162 162 174 145 170 170 192 129 218 57 56
274 254 223 231 231 228 213 205 217 239 270 298 223 206 236 214 208 203 214 217 205 229 229 227 211 196 179 172 181 166 151 140 156 149 129 128 162 127 88 81 86 72 63 80
313 286 233 295 305 273 186 233 215 240 218 227 229 200 205 192 194 212 208 214 150 254 217 208 190 173 168 160 145 137 128 138 128 122 106 102 98 97 88 84 83 86 96 103
148 264 296 218 194 216 191 193 257 245 247 253 256 218 343 162 194 185 204 124 139 195 59 46 116 123 111 104 118 120 128 117 114 105 105 103 103 106 107 109 109 100 89 81
86 275 284 298 290 317 210 222 183 241 225 242 270 18 338 66 108 91 83 99 110 117 126 100 98 104 116 129 125 116 115 116 125 117 107 103 103 105 104 99 96 92 85 77
5 281 299 306 221 265 268 232 241 215 229 229 243 165 335 105 106 81 116 115 143 148 131 112 121 129 141 144 136 119 117 123 120 113 113 107 105 103 99 95 90 85 81 69
325 257 257 278 297 340 250 232 221 236 217 225 242 183 168 154 134 133 122 150 160 143 144 142 149 143 125 126 121 121 114 115 116 111 109 107 102 100 95 87 79 71 62 50
51 261 268 279 282 269 245 256 212 229 222 231 246 299 169 110 139 133 137 158 142 129 128 132 131 130 119 117 115 116 112 109 109 108 104 101 99 93 87 81 73 64 51 37
181 274 306 293 283 254 251 253 204 218 228 227 246 197 331 272 133 128 127 140 121 122 145 123 118 118 114 112 108 108 106 107 106 102 99 97 93 91 86 79 68 50 31 18
281 279 303 276 215 214 247 234 197 203 207 226 234 126 170 152 138 137 130 129 124 123 120 105 103 108 112 110 109 108 105 102 98 98 98 97 97 88 76 62 46 27 9 356
247 256 255 255 162 162 110 196 206 202 215 222 231 136 145 137 126 132 127 130 120 108 106 103 105 103 101 95 95 95 91 93 92 90 88 81 78 69 51 26 24 4 353 347
221 224 268 313 309 217 96 21 230 217 221 213 207 90 113 123 120 102 94 91 93 106 101 112 89 96 99 95 94 90 96 94 96 92 81 63 50 45 25 15 2 356 352 342
205 214 277 319 310 286 26 355 340 320 223 198 147 117 131 143 134 126 121 102 83 93 105 104 104 88 70 59 102 96 93 88 80 82 79 58 39 27 11 9 1 9 1 18
169 198 238 266 284 234 353 329 306 192 197 163 129 161 158 166 137 134 130 122 114 112 99 100 91 88 82 61 54 75 75 72 71 61 45 43 28 8 34 20 33 28 25 31
172 201 208 213 249 227 351 327 334 355 313 283 134 176 141 110 128 134 123 116 125 129 126 122 93 85 111 102 102 97 91 71 43 40 30 29 29 22 45 48 38 50 6 60
240 341 59 20 17 310 319 309 4 23 37 70 100 116 114 113 111 103 100 107 113 118 126 114 113 126 129 121 118 103 96 76 39 23 29 36 38 49 55 50 28 64 40 19
17 69 79 174 341 15 15 45 40 56 62 73 78 88 103 105 106 111 105 105 107 121 130 127 134 131 125 104 91 100 72 44 27 30 41 49 71 64 52 58 50 39 32 33
5 51 103 89 242 355 38 66 75 69 70 74 73 88 102 102 98 105 104 101 114 145 136 139 133 124 121 119 100 63 49 40 56 80 72 52 100 85 100 63 33 78 48 21
339 332 71 84 69 81 70 73 73 73 73 77 87 79 68 87 103 99 97 101 124 125 119 119 117 113 110 97 91 74 64 46 64 106 89 60 90 93 110 125 110 71 81 95